FO-29
1 24278U 96046B 14093.69390422 -.00000002 00000-0 31117-4 0 3411
2 24278 098.5172 117.8221 0351454 130.8581 343.3864 13.53019434870590
SO-33
1 25509U 98061B 14092.79170685 .00002346 00000-0 44995-3 0 7216
2 25509 031.4318 227.5633 0349908 173.9353 309.3011 14.29433532806350
RS-22
1 27939U 03042A 14093.72480977 .00001894 00000-0 36098-3 0 3658
2 27939 097.8052 271.5942 0013135 348.8763 011.2175 14.65060929561826
VO-52
1 28650U 05017B 14093.78242105 .00004104 00000-0 48244-3 0 6991
2 28650 097.5615 102.4818 0026381 046.7310 313.6101 14.85146866482188
HO-68
1 36122U 09072B 14093.69979222 -.00000043 00000-0 00000 0 0 4650
2 36122 100.2574 147.8215 0007782 049.4272 310.7535 13.16313737206631
AO-73
1 39444U 13066AE 14093.15311924 .00005233 00000-0 70866-3 0 1066
2 39444 097.7784 166.3546 0063765 125.9405 234.7680 14.77944320 18383
UO-11
1 14781U 84021B 14093.19955413 .00001335 00000-0 17697-3 0 4541
2 14781 097.8600 154.7623 0009880 071.3621 288.8664 14.81457686616865
AO-16
1 20439U 90005D 14093.84590532 .00000278 00000-0 11876-3 0 9921
2 20439 098.5020 032.6015 0011131 025.7215 041.9153 14.32323342263843
LO-19
1 20442U 90005G 14093.06090360 .00000315 00000-0 13184-3 0 9288
2 20442 098.4727 032.7146 0011909 017.2224 342.9362 14.32526734263920
AO-27
1 22825U 93061C 14093.79825186 .00000233 00000-0 10792-3 0 6336
2 22825 098.6554 040.3038 0009177 150.1442 271.8344 14.29691362 70152
IO-26
1 22826U 93061D 14093.79711366 .00000270 00000-0 12195-3 0 3912
2 22826 098.6496 040.5343 0009832 143.7944 216.3905 14.29988683 70288
GO-32
1 25397U 98043D 14093.79204814 .00000157 00000-0 87618-4 0 3139
2 25397 098.4605 054.5883 0002087 136.5170 286.0212 14.23426358817288
NO-44
1 26931U 01043C 14092.79409895 .00000350 00000-0 16718-3 0 5682
2 26931 067.0519 232.8645 0005541 277.7978 082.2494 14.30082406652823
SO-50
1 27607U 02058C 14093.50718690 .00002003 00000-0 30265-3 0 3505
2 27607 064.5555 099.9766 0038543 036.6240 323.7974 14.73588355606471
CO-55
1 27844U 03031E 14093.02710508 .00000534 00000-0 26410-3 0 8911
2 27844 098.6997 102.8806 0010870 129.7939 291.3753 14.21450150557905
CO-57
1 27848U 03031J 14093.01415491 .00000458 00000-0 23061-3 0 8337
2 27848 098.7091 102.5377 0010701 135.6009 278.4593 14.21144657557823
AO-51
1 28375U 04025K 14093.78906239 .00000329 00000-0 11083-3 0 8086
2 28375 098.2434 043.2633 0082605 216.4758 143.0787 14.41341232513185
CP3
1 31129U 07012N 14093.54037675 .00001818 00000-0 41093-3 0 7121
2 31129 097.9280 075.3413 0097398 242.9929 240.7094 14.54507846369186
CO-65
1 32785U 08021C 14093.78504507 .00002972 00000-0 35373-3 0 9117
2 32785 097.7075 147.5028 0015294 076.5814 348.3861 14.85009298320982
PRISM
1 33493U 09002B 14093.76386044 .00008641 00000-0 92798-3 0 7904
2 33493 098.2441 266.3030 0017170 329.5009 030.5195 14.88730207281101
SOHLA-1
1 33496U 09002E 14093.15929578 .00001069 00000-0 18360-3 0 3147
2 33496 098.1594 213.9560 0007699 119.4111 001.6338 14.70707841278487
TISAT-1
1 36799U 10035E 14093.78584810 .00006469 00000-0 76031-3 0 526
2 36799 098.0175 185.2495 0013634 199.3956 160.6690 14.85166327201676
STUDSAT
1 36801U 10035G 14093.15019999 .00021602 00000-0 19904-2 0 7968
2 36801 098.0320 191.2594 0010789 178.7609 245.8455 14.94672322201912
ALMASAT-1
1 38078U 12006B 14093.59654267 .00065832 00000-0 14564-2 0 9857
2 38078 069.4698 238.4778 0615640 130.9717 355.2133 14.44122154110843
XATCOBEO
1 38082U 12006F 14093.69944891 .00184206 10356-4 18714-2 0 946
2 38082 069.4532 161.5697 0323030 087.7660 053.7376 15.20747040112939
CUBEBUG-1
1 39153U 13018D 14093.80017789 .00003472 00000-0 49375-3 0 9965
2 39153 098.0446 174.2522 0016814 228.7766 131.1992 14.77440025 50572
ESTCUBE-1
1 39161U 13021C 14093.88786106 .00002711 00000-0 46241-3 0 9731
2 39161 098.1001 175.3305 0008606 274.4620 085.5574 14.69783808 48684
MET-3/5
1 21655U 91056A 14093.82484520 .00000478 00000-0 12088-2 0 9406
2 21655 082.5576 048.9509 0014426 120.8894 239.3649 13.17050813 88199
MET-2/21
1 22782U 93055A 14093.82805520 .00000113 00000-0 88666-4 0 185
2 22782 082.5499 232.2920 0023590 113.8782 049.6954 13.83731816 39830
OKEAN-4
1 23317U 94066A 14093.79145956 .00001936 00000-0 22182-3 0 4952
2 23317 082.5375 137.6771 0019982 350.0459 124.6424 14.85328053 52060
NOAA-14
1 23455U 94089A 14093.43195295 .00000091 00000-0 70987-4 0 7054
2 23455 098.7791 178.1899 0008601 248.2127 242.4834 14.13961857993380
NOAA-15
1 25338U 98030A 14093.50707935 .00000344 00000-0 16455-3 0 1351
2 25338 098.7498 087.5258 0010535 011.9772 097.4413 14.25386563826203
RESURS
1 25394U 98043A 14093.83283806 .00000115 00000-0 67635-4 0 6245
2 25394 098.4050 061.3665 0002613 111.5687 304.1405 14.24384835817734
FENGYUN1
1 25730U 99025A 14093.14334847 .00003005 00000-0 16688-2 0 1163
2 25730 098.9079 054.7294 0026808 325.4109 099.4711 14.11717574766930
OKEAN-0
1 25860U 99039A 14093.83409337 .00001254 00000-0 19334-3 0 2139
2 25860 098.0349 058.1813 0000961 094.7846 321.0167 14.75138404791190
NOAA-16
1 26536U 00055A 14093.17789700 .00000135 00000-0 96446-4 0 6256
2 26536 098.9978 153.1871 0010824 042.9916 019.7666 14.13017465697522
NOAA-17
1 27453U 02032A 14093.50188756 .00000321 00000-0 15515-3 0 5313
2 27453 098.3134 097.1516 0012156 039.7275 123.1923 14.24722774612053
NOAA-18
1 28654U 05018A 14093.49464003 .00000421 00000-0 25527-3 0 178
2 28654 099.1418 071.5229 0015413 113.0037 354.9253 14.11983518457024
NOAA-19
1 33591U 09005A 14093.50862794 .00000201 00000-0 13497-3 0 1827
2 33591 098.9386 038.7954 0013494 334.2890 139.2931 14.11682601265452
HUBBLE
1 20580U 90037B 14093.61010425 .00004264 00000-0 28058-3 0 4728
2 20580 028.4692 167.2842 0002989 201.0624 274.9397 15.05090680113472
ISS
1 25544U 98067A 14094.03144353 -.00138552 00000-0 -24245-2 0 65
2 25544 051.6463 107.0810 0003978 337.2202 062.8076 15.50434083879826
CO-58
1 28895U 05043F 14093.12230245 .00001476 00000-0 30454-3 0 7322
2 28895 097.8421 298.8671 0016353 245.2301 114.7200 14.61733658449287
FALCON
1 30776U 07006E 14091.50500698 .00018079 00000-0 94747-3 0 8352
2 30776 035.4290 228.1268 0001214 327.9234 094.5155 15.14985030389099
MAST
1 31126U 07012K 14092.98306991 .00001048 00000-0 23968-3 0 113
2 31126 097.9088 077.8302 0091437 228.2124 202.5796 14.55150089369454
CAPE1
1 31130U 07012P 14093.63275415 .00001614 00000-0 36754-3 0 179
2 31130 097.9292 075.0096 0097924 243.9786 115.1303 14.54275199368979
COMPASS
1 32787U 08021E 14093.77796555 .00005543 00000-0 61733-3 0 8939
2 32787 097.7097 149.4270 0015243 070.8969 289.3897 14.87399278321122
AAUSAT2
1 32788U 08021F 14093.14413445 .00006064 00000-0 66426-3 0 8792
2 32788 097.7103 149.7107 0014669 071.9210 288.3604 14.88047472321082
DO-64
1 32789U 08021G 14093.14931725 .00010362 00000-0 10170-2 0 9150
2 32789 097.7278 155.5235 0013101 061.3078 351.4607 14.92316869321302
CO-66
1 32791U 08021J 14092.79426642 .00005569 00000-0 63916-3 0 8744
2 32791 097.7091 147.3882 0015877 076.3271 283.9712 14.86154391320856
RS-30
1 32953U 08025A 14093.86089550 .00000010 00000-0 00000 0 0 7971
2 32953 082.4994 247.4196 0018180 319.9208 040.0530 12.43044664266025
METEOR-M
1 35865U 09049A 14093.70643567 .00000068 00000-0 50229-4 0 4063
2 35865 098.5593 143.3456 0002354 335.7543 024.3520 14.21916144235759
